CW3783 Weather Reports


Display with metric or nautical units.
time (UTC)temp
F
wind
direction
speed
MPH
gust
MPH
rain 1hr
in
rain 24hr
in
rain mn
in
humidity
%
barometer
mb
20260507081804 54 45 2.0 3.0 0.00 0.23 0.13 90 1009.0
20260507081303 54 20 1.0 3.0 0.00 0.23 0.13 89 1009.0
20260507080303 54 20 1.0 2.0 0.00 0.23 0.13 89 1009.1
20260507075803 54 20 1.0 5.0 0.00 0.23 0.13 89 1009.0
20260507075306 54 20 3.0 5.0 0.00 0.23 0.13 89 1008.9
20260507073803 54 12 6.0 10.0 0.00 0.23 0.13 89 1008.7
20260507073303 54 5 6.0 12.0 0.00 0.23 0.13 89 1008.9
20260507072803 54 2 7.0 15.0 0.00 0.23 0.13 89 1008.7
20260507072307 54 8 8.0 16.0 0.00 0.23 0.13 89 1008.7
20260507071804 54 358 9.0 16.0 0.00 0.23 0.13 89 1008.7
20260507071304 55 6 10.0 18.0 0.00 0.23 0.13 90 1008.7
20260507070803 55 5 6.0 12.0 0.00 0.23 0.13 91 1008.9
20260507070304 56 8 5.0 8.0 0.00 0.23 0.13 91 1008.9
20260507065803 56 2 6.0 10.0 0.00 0.23 0.13 91 1009.0
20260507065306 56 353 4.0 10.0 0.00 0.23 0.13 91 1009.1
20260507064804 56 328 3.0 6.0 0.00 0.23 0.13 91 1009.1
20260507064303 56 339 3.0 7.0 0.00 0.23 0.13 91 1008.9
20260507063803 56 352 5.0 9.0 0.00 0.23 0.13 91 1008.6
20260507063303 56 15 5.0 8.0 0.00 0.23 0.13 91 1008.4
20260507062803 56 0 5.0 9.0 0.01 0.23 0.13 91 1008.5
20260507062306 57 356 3.0 7.0 0.01 0.23 0.13 91 1008.7
20260507061803 57 1 4.0 7.0 0.01 0.23 0.13 90 1008.8
20260507061303 57 341 4.0 8.0 0.01 0.23 0.13 90 1008.9
20260507060804 57 344 4.0 7.0 0.02 0.23 0.13 90 1008.9
20260507060304 57 3 5.0 7.0 0.06 0.23 0.13 90 1008.7
20260507055804 57 4 3.0 8.0 0.06 0.23 0.13 89 1008.8
20260507055306 57 7 5.0 7.0 0.07 0.23 0.13 89 1008.9
20260507054803 57 340 4.0 9.0 0.12 0.23 0.13 89 1009.0
20260507054303 57 5 5.0 9.0 0.13 0.23 0.13 88 1008.7
20260507053803 58 3 3.0 6.0 0.13 0.23 0.13 88 1009.1
20260507053303 58 343 1.0 3.0 0.13 0.23 0.13 87 1009.2
20260507052803 58 296 2.0 6.0 0.12 0.22 0.12 87 1009.2
20260507052306 58 345 2.0 7.0 0.12 0.22 0.12 86 1009.0
20260507051803 58 338 5.0 8.0 0.12 0.22 0.12 86 1008.9
20260507051304 59 341 5.0 8.0 0.12 0.22 0.12 85 1009.0
20260507050803 59 1 8.0 15.0 0.11 0.21 0.11 84 1009.1
20260507045803 60 353 6.0 16.0 0.07 0.17 0.07 82 1009.4
20260507045306 60 328 5.0 9.0 0.06 0.16 0.06 81 1009.0
20260507044303 61 337 7.0 12.0 0.00 0.10 0.00 77 1008.8
20260507043804 61 335 6.0 12.0 0.00 0.10 0.00 77 1008.8
20260507043303 61 344 7.0 12.0 0.00 0.10 0.00 76 1008.6
20260507042803 61 354 7.0 15.0 0.00 0.10 0.00 76 1008.9
20260507042306 62 351 7.0 16.0 0.00 0.10 0.00 76 1008.9
20260507041804 62 346 9.0 17.0 0.00 0.10 0.00 76 1008.8
20260507041303 62 350 10.0 18.0 0.00 0.10 0.00 77 1008.4
20260507040803 63 347 8.0 17.0 0.00 0.10 0.00 78 1008.4
20260507040304 63 356 7.0 9.0 0.00 0.10 0.00 79 1008.1
20260507035803 63 8 7.0 12.0 0.00 0.10 0.10 79 1007.9
20260507035306 63 0 6.0 13.0 0.00 0.10 0.10 79 1007.9
20260507034304 63 354 2.0 7.0 0.00 0.10 0.10 79 1007.8
20260507033803 64 358 3.0 7.0 0.00 0.10 0.10 79 1008.1
20260507033303 64 326 5.0 9.0 0.00 0.10 0.10 79 1008.3
20260507032305 64 336 6.0 9.0 0.00 0.10 0.10 78 1008.1
20260507031803 64 354 4.0 9.0 0.00 0.10 0.10 78 1008.1
20260507031303 64 324 5.0 9.0 0.00 0.10 0.10 77 1008.2
20260507030803 64 325 3.0 5.0 0.00 0.10 0.10 77 1008.2
20260507030304 64 346 3.0 5.0 0.00 0.10 0.10 77 1007.9
20260507025804 64 355 2.0 5.0 0.00 0.10 0.10 76 1007.7
20260507024804 65 330 6.0 10.0 0.00 0.10 0.10 76 1007.7
20260507024303 65 353 4.0 15.0 0.00 0.10 0.10 76 1007.6
20260507023803 65 343 6.0 13.0 0.00 0.10 0.10 76 1007.7
20260507023303 65 12 5.0 12.0 0.00 0.10 0.10 76 1007.4
20260507022804 65 2 5.0 12.0 0.00 0.10 0.10 76 1007.2
20260507022306 65 342 6.0 13.0 0.00 0.10 0.10 77 1007.6
20260507021803 66 340 6.0 15.0 0.00 0.10 0.10 77 1007.2
20260507021303 66 339 6.0 13.0 0.00 0.10 0.10 79 1007.6
20260507020803 66 350 6.0 13.0 0.00 0.10 0.10 80 1007.5
20260507020303 67 1 10.0 15.0 0.00 0.10 0.10 81 1007.5
20260507015804 67 355 7.0 12.0 0.00 0.10 0.10 82 1007.4
20260507014303 67 329 3.0 6.0 0.00 0.10 0.10 83 1007.3
20260507013803 68 354 5.0 12.0 0.00 0.10 0.10 83 1007.4
20260507013304 68 357 2.0 7.0 0.00 0.10 0.10 83 1007.4
20260507011804 68 289 4.0 7.0 0.00 0.10 0.10 82 1007.5
20260507011303 68 306 1.0 3.0 0.00 0.10 0.10 82 1007.4
20260507010804 68 228 2.0 3.0 0.00 0.10 0.10 82 1007.3
20260507010304 68 234 2.0 5.0 0.00 0.10 0.10 82 1007.2
20260507005803 68 213 2.0 5.0 0.00 0.10 0.10 82 1007.1
20260507005306 68 226 1.0 3.0 0.00 0.10 0.10 82 1007.1
20260507004304 68 268 2.0 5.0 0.00 0.10 0.10 81 1007.1
20260507003803 68 233 1.0 8.0 0.00 0.10 0.10 81 1007.0
20260507003303 68 185 1.0 2.0 0.00 0.10 0.10 81 1006.9
20260507002804 68 188 2.0 7.0 0.00 0.10 0.10 81 1007.1
20260507001303 69 207 1.0 3.0 0.00 0.10 0.10 81 1006.8
20260507000803 69 162 2.0 5.0 0.00 0.10 0.10 81 1006.8
20260507000306 69 231 2.0 5.0 0.00 0.10 0.10 81 1006.8
20260506235803 69 204 2.0 6.0 0.00 0.10 0.10 80 1006.6
20260506235306 69 167 3.0 6.0 0.00 0.10 0.10 80 1006.6
20260506234804 69 193 3.0 5.0 0.00 0.10 0.10 80 1006.6
20260506234303 69 181 2.0 7.0 0.00 0.10 0.10 80 1006.4
20260506233803 69 210 3.0 7.0 0.00 0.10 0.10 79 1006.4
20260506233303 69 186 5.0 8.0 0.00 0.10 0.10 79 1006.4
20260506232803 69 184 2.0 6.0 0.00 0.10 0.10 79 1006.3
20260506232306 69 185 1.0 5.0 0.00 0.10 0.10 79 1006.3
20260506231803 70 185 3.0 8.0 0.00 0.10 0.10 79 1006.2
20260506231303 70 188 5.0 9.0 0.00 0.10 0.10 78 1006.2
20260506230804 70 193 4.0 10.0 0.00 0.10 0.10 78 1006.3
20260506230303 70 199 6.0 9.0 0.00 0.10 0.10 78 1006.2
20260506225803 70 201 6.0 9.0 0.00 0.10 0.10 78 1006.2
20260506224804 70 199 3.0 7.0 0.00 0.10 0.10 78 1005.9
20260506224304 70 200 2.0 7.0 0.00 0.10 0.10 78 1006.0
20260506223803 70 190 2.0 5.0 0.00 0.10 0.10 78 1005.9
20260506223303 70 183 2.0 5.0 0.00 0.10 0.10 78 1006.0
20260506222804 70 228 3.0 8.0 0.00 0.10 0.10 77 1006.2
20260506222306 70 175 2.0 6.0 0.00 0.10 0.10 77 1006.2
20260506221803 70 198 4.0 8.0 0.00 0.10 0.10 77 1006.2
20260506220304 71 248 3.0 9.0 0.00 0.10 0.10 76 1006.2
20260506215804 71 240 5.0 10.0 0.00 0.10 0.10 76 1006.1
20260506214803 71 214 5.0 9.0 0.00 0.10 0.10 76 1006.1
20260506214303 71 237 5.0 9.0 0.00 0.10 0.10 76 1006.1
20260506213804 71 233 3.0 9.0 0.00 0.10 0.10 76 1006.0
20260506213303 71 224 3.0 10.0 0.00 0.10 0.10 76 1005.9
20260506212803 71 230 5.0 12.0 0.00 0.10 0.10 76 1005.9
20260506211803 71 217 4.0 9.0 0.00 0.10 0.10 76 1005.9
20260506211303 71 237 5.0 10.0 0.00 0.10 0.10 75 1005.8
20260506210803 71 190 5.0 10.0 0.00 0.10 0.10 76 1005.9
20260506210303 71 233 3.0 8.0 0.00 0.10 0.10 76 1005.8
20260506205805 71 224 5.0 12.0 0.00 0.10 0.10 75 1005.7
20260506205306 71 226 5.0 12.0 0.00 0.10 0.10 76 1005.6
20260506204805 71 214 7.0 12.0 0.00 0.10 0.10 75 1005.6
20260506204304 71 210 5.0 13.0 0.00 0.10 0.10 76 1005.7
20260506203304 71 203 7.0 12.0 0.00 0.10 0.10 75 1005.7
20260506202803 71 217 9.0 14.0 0.00 0.10 0.10 75 1005.8
20260506202306 71 221 7.0 12.0 0.00 0.10 0.10 76 1005.6
20260506201804 71 178 6.0 12.0 0.00 0.10 0.10 75 1005.6
20260506201304 71 215 7.0 14.0 0.00 0.10 0.10 75 1005.6
20260506200803 71 211 6.0 12.0 0.00 0.10 0.10 74 1005.6
20260506200304 71 192 6.0 9.0 0.00 0.10 0.10 75 1005.7
20260506195804 71 262 3.0 10.0 0.00 0.10 0.10 75 1005.7
20260506195306 71 183 7.0 12.0 0.00 0.10 0.10 75 1005.7
20260506194803 71 177 2.0 13.0 0.00 0.10 0.10 76 1005.7
20260506193804 71 211 7.0 16.0 0.00 0.10 0.10 76 1005.8
20260506193304 71 199 6.0 15.0 0.00 0.10 0.10 77 1005.7
20260506192804 70 216 3.0 9.0 0.00 0.10 0.10 78 1005.7
20260506192305 70 214 3.0 13.0 0.00 0.10 0.10 78 1005.8
20260506191803 69 240 5.0 10.0 0.00 0.10 0.10 79 1005.8
20260506191303 69 201 7.0 14.0 0.00 0.10 0.10 79 1005.9
20260506190803 69 177 8.0 20.0 0.00 0.10 0.10 78 1005.9
20260506190303 69 205 8.0 15.0 0.00 0.10 0.10 79 1006.1
20260506185803 69 180 5.0 13.0 0.00 0.10 0.10 80 1006.0
20260506185306 68 211 9.0 14.0 0.00 0.10 0.10 80 1006.2
20260506184303 67 223 8.0 14.0 0.00 0.10 0.10 81 1006.4
20260506183803 67 202 8.0 18.0 0.00 0.10 0.10 82 1006.3
20260506183303 67 199 6.0 14.0 0.00 0.10 0.10 82 1006.4
20260506182804 67 206 7.0 15.0 0.00 0.10 0.10 82 1006.4
20260506182306 67 188 6.0 16.0 0.00 0.10 0.10 82 1006.4
20260506181804 67 206 9.0 18.0 0.00 0.10 0.10 82 1006.4
20260506181303 66 198 8.0 15.0 0.00 0.10 0.10 83 1006.5
20260506180304 66 231 12.0 20.0 0.00 0.10 0.10 82 1006.7
20260506175803 66 231 11.0 17.0 0.00 0.10 0.10 83 1006.7
20260506175306 66 227 12.0 20.0 0.00 0.10 0.10 83 1006.7
20260506174804 66 237 10.0 16.0 0.00 0.10 0.10 84 1006.6
20260506174304 66 221 7.0 21.0 0.00 0.10 0.10 84 1006.6
20260506173803 66 214 7.0 18.0 0.00 0.10 0.10 86 1006.5
20260506172804 65 227 9.0 16.0 0.00 0.10 0.10 87 1006.7
20260506172306 65 208 9.0 18.0 0.00 0.10 0.10 87 1006.8
20260506171804 65 214 11.0 20.0 0.00 0.10 0.10 87 1006.7
20260506171304 65 195 10.0 16.0 0.00 0.10 0.10 88 1006.7
20260506170804 64 213 3.0 16.0 0.00 0.10 0.10 89 1006.7
20260506170303 64 185 5.0 15.0 0.00 0.10 0.10 89 1006.7
20260506165804 64 201 10.0 18.0 0.00 0.10 0.10 90 1006.7
20260506165305 63 198 7.0 18.0 0.00 0.10 0.10 90 1006.8
20260506164803 63 208 9.0 21.0 0.00 0.10 0.10 90 1006.9
20260506164303 63 200 8.0 17.0 0.00 0.10 0.10 91 1006.9
20260506163804 63 205 5.0 17.0 0.00 0.10 0.10 91 1006.9
20260506163303 63 210 6.0 17.0 0.00 0.10 0.10 91 1006.8
20260506161803 62 195 9.0 17.0 0.00 0.10 0.10 92 1006.9
20260506160803 62 186 9.0 18.0 0.00 0.10 0.10 92 1007.0
20260506155306 62 181 8.0 14.0 0.00 0.10 0.10 92 1007.1
20260506154803 62 187 7.0 14.0 0.01 0.10 0.10 92 1007.1
20260506153803 62 189 9.0 16.0 0.01 0.10 0.10 92 1007.1
20260506153304 62 183 7.0 15.0 0.02 0.10 0.10 92 1007.1
20260506152803 62 189 8.0 15.0 0.03 0.10 0.10 92 1007.0
20260506151803 62 199 7.0 14.0 0.03 0.10 0.10 92 1007.6
20260506151303 62 200 7.0 13.0 0.04 0.10 0.10 92 1007.7
20260506150804 62 200 10.0 14.0 0.05 0.10 0.10 92 1007.8
20260506150304 62 192 7.0 13.0 0.05 0.10 0.10 91 1007.7
20260506145803 62 190 7.0 17.0 0.05 0.10 0.10 91 1007.9
20260506145305 62 167 7.0 13.0 0.06 0.10 0.10 91 1007.9
20260506144804 62 192 10.0 17.0 0.05 0.09 0.09 91 1008.0
20260506144303 62 203 9.0 16.0 0.06 0.09 0.09 91 1008.0
20260506143804 62 191 10.0 17.0 0.06 0.09 0.09 91 1007.9
20260506143303 62 188 8.0 13.0 0.05 0.08 0.08 90 1007.7
20260506142803 62 190 7.0 13.0 0.05 0.07 0.07 90 1007.9
20260506142305 62 182 9.0 14.0 0.05 0.07 0.07 90 1007.8
20260506141804 62 189 7.0 12.0 0.06 0.07 0.07 89 1007.8
20260506140803 62 206 7.0 17.0 0.04 0.05 0.05 89 1007.9
20260506140303 62 188 8.0 15.0 0.04 0.05 0.05 88 1007.9
20260506135804 62 204 6.0 13.0 0.04 0.05 0.05 88 1008.0
20260506135306 63 199 7.0 13.0 0.04 0.04 0.04 88 1008.0
20260506134803 63 190 7.0 13.0 0.04 0.04 0.04 87 1008.1
20260506133803 63 207 6.0 12.0 0.03 0.03 0.03 86 1008.5
20260506133303 63 205 6.0 13.0 0.03 0.03 0.03 86 1008.4
20260506132803 63 207 7.0 14.0 0.02 0.02 0.02 85 1008.3
20260506132306 64 194 7.0 15.0 0.02 0.02 0.02 84 1008.1
20260506131303 64 182 5.0 9.0 0.01 0.01 0.01 82 1008.0
20260506130804 64 211 7.0 12.0 0.01 0.01 0.01 82 1007.9
20260506125803 64 191 5.0 14.0 0.01 0.01 0.01 81 1007.8
20260506125305 65 206 6.0 15.0 0.00 0.00 0.00 81 1007.5
20260506124804 65 192 6.0 12.0 0.00 0.00 0.00 80 1007.6
20260506124304 65 206 7.0 12.0 0.00 0.00 0.00 79 1007.7
20260506123303 65 0 0.0 0.0 0.00 0.00 0.00 79 1007.8
20260506122803 65 0 0.0 0.0 0.00 0.00 0.00 79 1007.9
20260506122305 65 0 0.0 0.0 0.00 0.00 0.00 78 1008.1
20260506121803 65 0 0.0 0.0 0.00 0.00 0.00 78 1008.1
20260506121303 65 0 0.0 0.0 0.00 0.00 0.00 77 1008.2
20260506120804 66 0 0.0 0.0 0.00 0.00 0.00 76 1008.2
20260506120303 66 0 0.0 0.0 0.00 0.00 0.00 75 1008.2
20260506114804 66 0 0.0 0.0 0.00 0.00 0.00 72 1008.0
20260506114304 67 0 0.0 0.0 0.00 0.00 0.00 72 1007.9
20260506113805 67 0 0.0 0.0 0.00 0.00 0.00 72 1007.7
20260506112803 67 151 5.0 5.0 0.00 0.00 0.00 72 1007.6
20260506112306 67 151 5.0 18.0 0.00 0.00 0.00 72 1007.5
20260506111803 66 208 6.0 13.0 0.00 0.00 0.00 72 1007.5
20260506111303 66 199 9.0 16.0 0.00 0.00 0.00 72 1007.5
20260506110303 66 205 9.0 20.0 0.00 0.00 0.00 72 1007.4
20260506105803 66 185 8.0 17.0 0.00 0.00 0.00 72 1007.3
20260506105305 66 191 5.0 15.0 0.00 0.00 0.00 72 1007.3
20260506104804 66 196 9.0 17.0 0.00 0.00 0.00 72 1007.3
20260506103804 66 193 8.0 17.0 0.00 0.00 0.00 72 1007.2
20260506102804 66 211 11.0 16.0 0.00 0.00 0.00 72 1007.2
20260506101304 66 205 8.0 18.0 0.00 0.00 0.00 72 1007.2
20260506100804 66 205 6.0 16.0 0.00 0.00 0.00 71 1007.1
20260506100303 66 193 7.0 13.0 0.00 0.00 0.00 71 1007.1
20260506095804 66 198 7.0 17.0 0.00 0.00 0.00 71 1007.1
20260506095305 66 201 9.0 17.0 0.00 0.00 0.00 71 1007.1
20260506094804 66 212 10.0 16.0 0.00 0.00 0.00 71 1007.2
20260506094304 67 213 10.0 18.0 0.00 0.00 0.00 71 1007.2
20260506093803 67 186 10.0 21.0 0.00 0.00 0.00 71 1007.2
20260506092305 67 191 10.0 18.0 0.00 0.00 0.00 70 1007.1
20260506091803 67 196 9.0 17.0 0.00 0.00 0.00 70 1007.2
20260506091303 67 188 9.0 15.0 0.00 0.00 0.00 70 1007.2
20260506090803 67 189 9.0 14.0 0.00 0.00 0.00 69 1007.2
20260506090303 67 193 10.0 16.0 0.00 0.00 0.00 69 1007.2
20260506085804 68 185 11.0 17.0 0.00 0.00 0.00 69 1007.3
20260506085306 68 198 9.0 17.0 0.00 0.00 0.00 68 1007.4
20260506084804 68 198 9.0 18.0 0.00 0.00 0.00 68 1007.5
20260506084303 68 203 10.0 17.0 0.00 0.00 0.00 68 1007.4
20260506083803 68 184 9.0 18.0 0.00 0.00 0.00 67 1007.4
20260506083303 68 200 9.0 18.0 0.00 0.00 0.00 67 1007.4
20260506082804 68 209 11.0 17.0 0.00 0.00 0.00 66 1007.4